This is the latest recevied weather packets stored in our database for station/object KG4LKY-5. If no packets are shown the sender has not sent any weather packets the latest 10 day(s).
| Time | Temp. | Humidity | Pressure | Rain* | Wind** | Luminosity | Snow |
|---|---|---|---|---|---|---|---|
| 1777449391 | 16.67° C | 100% | 1013.3 hPa | 0 mm | - | - | - |
| 1777449091 | 17.22° C | 100% | 1013.3 hPa | 0 mm | - | - | - |
| 1777448790 | 17.22° C | 100% | 1013.4 hPa | 0 mm | - | - | - |
| 1777448189 | 16.67° C | 100% | 1013.3 hPa | 0 mm | - | - | - |
| 1777447889 | 17.22° C | 100% | 1013.4 hPa | 0 mm | - | - | - |
| 1777447288 | 17.22° C | 100% | 1013.7 hPa | 0 mm | - | - | - |
| 1777446688 | 17.22° C | 100% | 1013.7 hPa | 0 mm | - | - | - |
| 1777446387 | 17.22° C | 100% | 1013.8 hPa | 0 mm | - | - | - |
| 1777446086 | 17.22° C | 100% | 1013.6 hPa | 0 mm | - | - | - |
| 1777445786 | 16.67° C | 100% | 1012.8 hPa | 0 mm | - | - | - |
| 1777445484 | 17.22° C | 100% | 1012.5 hPa | 0 mm | - | - | - |
| 1777444884 | 17.22° C | 100% | 1012.3 hPa | 0 mm | - | - | - |
| 1777444284 | 18.33° C | 100% | 1012.2 hPa | 0 mm | - | - | - |
| 1777443683 | 17.22° C | 100% | 1012.4 hPa | 0 mm | - | - | - |
| 1777443082 | 17.78° C | 100% | 1012.6 hPa | 0 mm | - | - | - |
| 1777442782 | 17.78° C | 100% | 1012.8 hPa | 0 mm | - | - | - |
| 1777442481 | 17.78° C | 100% | 1012.9 hPa | 0 mm | - | - | - |
| 1777442181 | 17.78° C | 100% | 1013.2 hPa | 0 mm | - | - | - |
| 1777441881 | 17.78° C | 100% | 1012.8 hPa | 0 mm | - | - | - |
| 1777441581 | 18.33° C | 100% | 1012.8 hPa | 0 mm | - | - | - |
| 1777441280 | 17.78° C | 100% | 1012.8 hPa | 0 mm | - | - | - |
| 1777440680 | 18.89° C | 100% | 1013.4 hPa | 0 mm | - | - | - |
| 1777440379 | 18.33° C | 100% | 1013.6 hPa | 0 mm | - | - | - |
| 1777440079 | 17.78° C | 100% | 1013.9 hPa | 0 mm | - | - | - |
| 1777439779 | 18.33° C | 100% | 1014.2 hPa | 0 mm | - | - | - |
* Rain since midnight (hover to see other rain measurements)
** Current wind speed in m/s (hover to see current wind gust speed)